Home   Weather   Granby   Past weeks

Flag for Canada Past Weather in Granby, Quebec, Canada — Yesterday and Last 2 Weeks

Now
53 °F

Cool.


Feels Like: 50 °F
Forecast: 37 / 56 °F
Wind: 8 mph from Northwest

Location: Frelighsburg

Current Time: Sep 25, 2016 at 1:31:45 PM

Latest Report: Sep 25, 2016 at 1:00 PM


Visibility: N/A

Pressure: 30.17 "Hg

Humidity: 57%

Dew Point: 38 °F

Location of GranbyLocation

Past Weather in Granby — Graph

°F

Granby Temperature Yesterday

Maximum temperature yesterday: 58 °F (at 4:00 PM)
Minimum temperature yesterday: 42 °F (at 7:00 AM)
Average temperature yesterday: 50 °F

High & Low Weather Summary for the Past Weeks

 TemperatureHumidityPressure
High80 °F (Sep 10, 2:00 PM)100% (Sep 19, 6:00 AM)30.34 "Hg (Sep 19, 6:00 AM)
Low38 °F (Sep 25, 7:00 AM)40% (Sep 21, 4:00 PM)29.65 "Hg (Sep 11, 4:00 AM)
Average61 °F79%30.08 "Hg
* Reported Sep 10 12:00 PM — Sep 25 12:00 PM, Granby, Weather by CustomWeather, © 2016

Note: Actual official high and low records may vary slightly from our data, if they occured in-between our weather recording intervals... More about our weather records

Advertising

Granby Weather History for the Previous 24 Hours

Scroll right to see more
 ConditionsComfort  
Time TempWeatherWind HumidityBarometerVisibility
12:00 PM
Sun, Sep 25
52 °FCool.7 mph62%30.18 "HgN/A
11:00 AM47 °FCool.7 mph78%30.19 "HgN/A
10:00 AM47 °FCool.6 mph80%30.19 "HgN/A
9:00 AM43 °FQuite cool.5 mph87%30.19 "HgN/A
8:00 AM40 °FQuite cool.2 mph98%30.18 "HgN/A
7:00 AM38 °FChilly.2 mph96%30.17 "HgN/A
6:00 AM39 °FChilly.2 mph94%30.17 "HgN/A
5:00 AM39 °FChilly.2 mph91%30.16 "HgN/A
4:00 AM42 °FQuite cool.3 mph82%30.15 "HgN/A
3:00 AM42 °FQuite cool.3 mph81%30.16 "HgN/A
2:00 AM42 °FQuite cool.3 mph74%30.16 "HgN/A
1:00 AM43 °FQuite cool.3 mph78%30.16 "HgN/A
12:00 AM43 °FQuite cool.3 mph77%30.16 "HgN/A
11:00 PM
Sat, Sep 24
44 °FQuite cool.7 mph70%30.16 "HgN/A
10:00 PM46 °FCool.7 mph65%30.16 "HgN/A
9:00 PM48 °FCool.6 mph53%30.15 "HgN/A
8:00 PM50 °FCool.6 mph53%30.13 "HgN/A
7:00 PM52 °FCool.6 mph52%30.12 "HgN/A
6:00 PM56 °FRefreshingly cool.8 mph47%30.10 "HgN/A
5:00 PM58 °FRefreshingly cool.7 mph46%30.10 "HgN/A
4:00 PM58 °FRefreshingly cool.6 mph44%30.09 "HgN/A
3:00 PM57 °FRefreshingly cool.6 mph52%30.10 "HgN/A
2:00 PM56 °FRefreshingly cool.6 mph53%30.12 "HgN/A
1:00 PM57 °FRefreshingly cool.5 mph57%30.14 "HgN/A
Weather by CustomWeather, © 2016

See weather overviewHow to use our weather pages